Cloud_Cover
6 55 100 100 100 100 100 88 14 5 6 99 76 23 37 100 100 100 100 64 89 100
97 72 100 100 100 95 5 5 5 31 5 9 68 6 70 100 100 83 20 35 52 100
62 55 100 100 100 82 20 98 16 5 29 65 27 19 28 92 68 5 6 24 59 100
92 88 55 77 100 45 68 7 5 52 96 94 45 5 5 5 5 5 5 100 98 54
68 24 21 56 95 5 5 5 52 100 70 5 5 15 5 5 5 5 89 100 99 28
93 100 82 99 100 24 31 100 100 21 62 18 5 0 0 5 5 82 98 24 73 94
100 100 96 95 87 99 100 100 69 66 100 38 5 4 5 5 6 95 94 93 66 86
100 100 100 100 100 100 96 98 100 100 100 100 82 38 5 5 53 100 100 76 64 75
100 100 100 100 100 100 100 100 100 85 98 99 97 76 19 5 46 100 100 99 75 39
100 100 100 100 100 100 100 100 100 97 61 5 40 78 76 5 91 98 93 94 39 84
100 100 100 100 100 100 78 100 100 55 18 5 55 89 94 7 100 60 48 30 86 98
100 100 100 100 100 97 99 100 100 60 6 5 58 88 24 12 61 100 100 100 100 100
100 100 100 100 100 100 100 100 34 5 48 23 82 83 7 5 76 100 100 100 100 100
91 100 100 100 100 100 100 92 76 23 60 30 83 100 99 6 35 94 100 100 100 100